| time (UTC) | temp C | wind direction | speed KPH | gust KPH | rain 1hr cm | rain 24hr cm | rain mn cm | humidity % | barometer mb |
| 20260507214627 | 0 | 85 | 0.0 | 0.0 | 0.00 | 0.00 | 0.00 | 100 | |
| 20260507212626 | 0 | 177 | 0.0 | 0.0 | 0.00 | 0.00 | 0.00 | 100 | |
| 20260507210625 | 0 | 177 | 0.0 | 3.2 | 0.00 | 0.00 | 0.00 | 100 | |
| 20260507204624 | 0 | 78 | 0.0 | 0.0 | 0.00 | 0.00 | 0.00 | 100 | |
| 20260507202622 | 0 | 78 | 0.0 | 0.0 | 0.00 | 0.00 | 0.00 | 100 | |
| 20260507200622 | 0 | 78 | 0.0 | 0.0 | 0.00 | 0.00 | 0.00 | 100 | |
| 20260507194622 | 0 | 78 | 0.0 | 0.0 | 0.00 | 0.00 | 0.00 | 100 | |
| 20260507192619 | 0 | 78 | 0.0 | 0.0 | 0.00 | 0.00 | 0.00 | 100 | |
| 20260507190618 | 0 | 78 | 0.0 | 0.0 | 0.00 | 0.00 | 0.00 | 100 | |
| 20260507184617 | 0 | 78 | 0.0 | 0.0 | 0.00 | 0.00 | 0.00 | 100 | |
| 20260507182618 | 1 | 354 | 0.0 | 0.0 | 0.00 | 0.00 | 0.00 | 100 | |
| 20260507180614 | 1 | 354 | 0.0 | 0.0 | 0.00 | 0.00 | 0.00 | 100 | |
| 20260507174614 | 1 | 306 | 3.2 | 9.7 | 0.00 | 0.00 | 0.00 | 100 | |
| 20260507172612 | 1 | 358 | 0.0 | 3.2 | 0.00 | 0.00 | 0.00 | 100 | |
| 20260507170611 | 1 | 317 | 0.0 | 6.4 | 0.00 | 0.00 | 0.00 | 100 | |
| 20260507164610 | 1 | 4 | 0.0 | 4.8 | 0.00 | 0.00 | 0.00 | 100 | |
| 20260507162609 | 2 | 146 | 0.0 | 3.2 | 0.00 | 0.00 | 0.00 | 100 | |
| 20260507160607 | 2 | 9 | 0.0 | 1.6 | 0.00 | 0.00 | 0.00 | 100 | |
| 20260507154606 | 2 | 320 | 3.2 | 4.8 | 0.00 | 0.00 | 0.00 | 100 | |
| 20260507152605 | 2 | 350 | 0.0 | 0.0 | 0.00 | 0.00 | 0.00 | 100 | |
| 20260507150604 | 1 | 350 | 0.0 | 3.2 | 0.00 | 0.00 | 0.00 | 100 | |
| 20260507144603 | 1 | 291 | 0.0 | 0.0 | 0.00 | 0.00 | 0.00 | 100 | |
| 20260507142602 | 0 | 291 | 0.0 | 1.6 | 0.00 | 0.00 | 0.00 | 100 | |
| 20260507140600 | 0 | 303 | 0.0 | 4.8 | 0.00 | 0.00 | 0.00 | 100 | |
| 20260507134559 | 0 | 317 | 11.3 | 14.5 | 0.00 | 0.00 | 0.00 | 100 | |
| 20260507132558 | 0 | 288 | 9.7 | 14.5 | 0.00 | 0.00 | 0.00 | 100 | |
| 20260507130557 | 1 | 291 | 6.4 | 9.7 | 0.00 | 0.00 | 0.00 | 100 | |
| 20260507124557 | 1 | 350 | 0.0 | 0.0 | 0.00 | 0.00 | 0.00 | 100 | |
| 20260507122555 | 2 | 350 | 0.0 | 4.8 | 0.00 | 0.00 | 0.00 | 100 | |
| 20260507120554 | 2 | 330 | 0.0 | 3.2 | 0.00 | 0.00 | 0.00 | 100 | |
| 20260507114552 | 2 | 277 | 0.0 | 6.4 | 0.00 | 0.00 | 0.00 | 100 | |
| 20260507112551 | 3 | 303 | 4.8 | 6.4 | 0.00 | 0.00 | 0.00 | 100 | |
| 20260507111116 | 3 | 286 | 4.8 | 8.0 | 0.00 | 0.00 | 0.00 | 100 | |
| 20260507110550 | 3 | 286 | 4.8 | 8.0 | 0.00 | 0.00 | 0.00 | 100 | |
| 20260507104733 | 4 | 300 | 4.8 | 4.8 | 0.00 | 0.00 | 0.00 | 100 | |
| 20260507104549 | 4 | 300 | 4.8 | 4.8 | 0.00 | 0.00 | 0.00 | 100 | |
| 20260507102548 | 3 | 196 | 1.6 | 4.8 | 0.00 | 0.00 | 0.00 | 100 | |
| 20260507100547 | 3 | 298 | 4.8 | 6.4 | 0.00 | 0.00 | 0.00 | 100 | |
| 20260507094546 | 4 | 168 | 0.0 | 1.6 | 0.00 | 0.00 | 0.00 | 100 | |
| 20260507092544 | 3 | 87 | 0.0 | 0.0 | 0.00 | 0.00 | 0.00 | 100 | |
| 20260507090543 | 2 | 144 | 1.6 | 6.4 | 0.00 | 0.00 | 0.00 | 100 | |
| 20260507084542 | 2 | 94 | 0.0 | 3.2 | 0.00 | 0.00 | 0.00 | 100 | |
| 20260507082541 | 2 | 126 | 0.0 | 0.0 | 0.00 | 0.00 | 0.00 | 100 | |
| 20260507080540 | 2 | 203 | 1.6 | 6.4 | 0.00 | 0.00 | 0.00 | 100 | |
| 20260507074539 | 1 | 354 | 0.0 | 0.0 | 0.00 | 0.00 | 0.00 | 100 | |
| 20260507072539 | 1 | 354 | 0.0 | 0.0 | 0.00 | 0.00 | 0.00 | 100 | |
| 20260507070537 | 2 | 153 | 0.0 | 0.0 | 0.00 | 0.00 | 0.00 | 100 | |
| 20260507064536 | 1 | 153 | 0.0 | 0.0 | 0.00 | 0.00 | 0.00 | 100 | |
| 20260507062535 | 1 | 153 | 0.0 | 0.0 | 0.00 | 0.00 | 0.00 | 100 | |
| 20260507060533 | 1 | 153 | 0.0 | 0.0 | 0.00 | 0.00 | 0.00 | 100 | |
| 20260507054532 | 1 | 153 | 0.0 | 0.0 | 0.00 | 0.00 | 0.00 | 100 | |
| 20260507052531 | 1 | 153 | 0.0 | 4.8 | 0.00 | 0.00 | 0.00 | 100 | |
| 20260507050529 | 1 | 143 | 1.6 | 3.2 | 0.00 | 0.00 | 0.00 | 100 | |
| 20260507044528 | 1 | 154 | 3.2 | 3.2 | 0.00 | 0.00 | 0.00 | 100 | |
| 20260507042527 | 1 | 120 | 0.0 | 0.0 | 0.00 | 0.00 | 0.00 | 100 | |
| 20260507040526 | 1 | 99 | 0.0 | 4.8 | 0.00 | 0.00 | 0.00 | 100 | |
| 20260507034525 | 1 | 80 | 0.0 | 0.0 | 0.00 | 0.00 | 0.00 | 100 | |
| 20260507032524 | 1 | 80 | 0.0 | 4.8 | 0.00 | 0.00 | 0.00 | 100 | |
| 20260507030523 | 1 | 292 | 0.0 | 0.0 | 0.00 | 0.00 | 0.00 | 100 | |
| 20260507024521 | 1 | 292 | 0.0 | 0.0 | 0.00 | 0.00 | 0.00 | 100 | |
| 20260507022520 | 1 | 292 | 0.0 | 0.0 | 0.00 | 0.00 | 0.00 | 100 | |
| 20260507020519 | 1 | 292 | 0.0 | 0.0 | 0.00 | 0.00 | 0.00 | 100 | |
| 20260507014518 | 2 | 292 | 0.0 | 0.0 | 0.00 | 0.00 | 0.00 | 100 | |
| 20260507012517 | 2 | 292 | 0.0 | 0.0 | 0.00 | 0.00 | 0.00 | 100 | |
| 20260507010516 | 2 | 292 | 0.0 | 0.0 | 0.00 | 0.00 | 0.00 | 100 | |
| 20260507004516 | 2 | 292 | 0.0 | 0.0 | 0.00 | 0.00 | 0.00 | 100 | |
| 20260507002513 | 2 | 292 | 0.0 | 0.0 | 0.00 | 0.00 | 0.00 | 100 | |
| 20260507000512 | 2 | 292 | 0.0 | 0.0 | 0.00 | 0.00 | 0.00 | 100 | |
| 20260506234511 | 2 | 292 | 0.0 | 0.0 | 0.00 | 0.00 | 0.00 | 100 | |
| 20260506232510 | 2 | 292 | 0.0 | 0.0 | 0.00 | 0.00 | 0.00 | 100 | |
| 20260506230509 | 2 | 292 | 0.0 | 0.0 | 0.00 | 0.00 | 0.00 | 100 | |
| 20260506224508 | 2 | 292 | 0.0 | 0.0 | 0.00 | 0.00 | 0.00 | 100 | |
| 20260506220505 | 2 | 292 | 0.0 | 0.0 | 0.00 | 0.00 | 0.00 | 100 |